Wind_Speed
43 42 41 41 41 42 41 40 39 39 38 38 39 41 42 41 40 38 38 39 38 39 40 40 40 40 40 40 40 39 39 40 40 39 37 36 37 37 36 37 36 36
42 42 41 40 41 41 41 41 40 39 39 40 41 42 41 39 38 37 37 37 37 38 38 38 39 39 39 39 39 38 39 39 39 38 36 35 36 36 37 37 37 38
42 41 41 41 42 42 42 41 40 39 40 41 41 41 40 38 37 36 36 36 36 37 37 36 37 37 37 37 37 37 38 38 38 37 35 35 35 36 37 38 39 39
41 42 42 43 43 42 41 39 39 40 40 40 41 41 39 37 36 36 36 35 35 36 35 35 36 36 36 36 35 36 36 37 37 35 34 35 36 37 38 38 39 39
40 41 41 42 42 41 39 38 40 40 40 41 41 39 38 37 36 36 35 35 34 34 34 34 35 35 35 35 34 34 34 35 35 35 35 36 37 38 38 38 38 38
38 39 40 41 40 40 39 40 40 40 39 40 40 38 38 37 36 35 35 34 33 33 33 34 34 34 34 34 33 33 34 34 34 35 35 37 37 37 37 38 38 38
37 37 38 39 39 39 39 40 40 39 39 39 38 38 38 36 35 35 34 33 33 33 33 33 33 33 33 33 33 33 34 34 35 35 35 36 36 36 36 36 36 36
37 37 37 37 37 38 39 39 39 39 39 38 38 38 37 36 35 35 34 33 33 33 33 33 33 33 33 32 33 34 34 34 35 35 36 37 37 37 37 37 36 37
35 36 36 35 36 38 39 40 40 39 38 38 38 37 36 35 35 34 34 33 33 33 33 33 33 33 32 33 33 34 34 34 35 36 36 37 36 36 35 35 34 35
34 35 35 36 37 39 39 40 40 39 38 37 37 36 36 36 35 34 33 33 33 33 33 33 33 33 33 33 33 34 34 34 35 36 36 36 35 34 33 33 33 32
33 34 35 37 38 39 39 39 39 38 37 37 36 36 36 35 34 34 33 33 33 33 33 33 33 33 33 33 33 34 34 34 35 35 34 34 34 34 34 34 33 32
33 34 36 37 38 38 38 37 36 36 36 36 35 35 35 34 34 33 33 33 33 33 33 33 33 32 33 33 33 33 33 33 33 32 31 31 31 32 33 33 33 32
33 34 35 36 36 36 36 35 35 34 34 34 33 33 33 33 33 33 33 32 33 33 33 32 32 32 32 32 31 30 31 31 31 30 30 31 30 31 32 31 31 29
32 32 32 33 33 33 33 33 33 33 33 32 32 32 32 32 32 32 31 31 31 32 32 31 31 31 31 30 29 29 29 29 28 29 30 31 31 31 31 30 28 26
31 30 30 30 30 31 32 32 32 31 30 30 30 30 31 31 30 30 30 30 30 30 30 30 30 30 30 29 28 27 27 27 27 28 29 30 30 29 29 30 28 27
29 29 28 28 28 29 30 30 30 29 28 28 28 28 28 28 27 27 28 29 29 28 28 28 28 29 28 26 25 25 26 27 27 27 27 28 28 27 27 27 28 27
29 28 27 27 27 27 27 27 27 26 25 26 25 25 25 24 24 24 25 25 25 25 25 25 25 24 22 22 22 24 25 26 25 25 26 26 26 25 25 25 25 27
27 27 27 28 27 27 26 25 23 22 23 23 22 22 21 21 22 23 23 22 22 22 22 22 21 20 20 20 21 22 23 24 24 24 24 24 25 24 23 23 23 25
25 25 26 27 27 26 25 23 22 23 23 23 22 22 21 21 22 22 21 21 21 21 22 21 20 20 20 20 20 20 21 21 22 22 22 23 24 24 23 22 22 23
24 24 25 25 25 24 24 23 24 25 26 25 25 24 24 24 23 22 22 22 22 21 21 21 21 20 19 18 18 18 19 19 19 19 20 22 23 23 22 22 22 23
25 24 24 23 23 22 22 23 24 25 26 26 26 27 27 27 25 24 23 23 23 23 22 22 23 23 22 22 21 18 18 19 18 17 18 20 21 21 21 22 23 24
28 26 25 23 22 22 23 24 25 25 24 24 24 25 25 25 25 25 24 24 23 22 22 22 23 24 25 26 24 21 20 19 18 17 17 19 20 21 22 23 23 22
30 28 27 26 24 24 26 26 26 25 24 22 22 22 22 23 24 24 24 24 23 23 23 23 24 24 25 25 24 23 21 19 18 17 17 19 20 21 22 22 20 19
33 31 29 28 28 28 29 28 26 25 24 22 23 23 23 23 23 23 23 24 24 24 24 24 24 24 23 23 23 22 21 20 19 18 18 18 19 20 20 19 18 17
34 32 31 31 31 31 30 29 27 25 24 22 22 22 22 22 22 23 24 24 24 24 23 23 23 23 23 22 22 22 22 21 20 19 18 18 18 18 18 17 17 17
34 33 33 33 33 32 29 27 26 25 24 23 23 22 21 22 23 24 24 24 24 23 23 23 23 23 23 22 22 22 22 21 21 20 19 18 18 18 18 18 18 18
Wind_Direction
228 228 228 229 230 232 233 233 233 234 235 235 236 239 241 243 243 241 242 244 244 245 245 245 245 246 246 246 245 245 245 246 247 247 244 242 243 242 241 241 240 240
228 229 229 230 231 232 233 234 234 234 236 237 239 241 243 243 242 242 243 244 244 246 246 246 246 247 246 246 245 244 244 245 245 246 243 241 243 242 242 243 242 242
229 229 229 230 232 233 234 234 235 235 237 239 241 243 243 243 243 243 244 245 245 246 247 246 247 247 247 246 245 243 243 243 244 244 242 242 243 243 244 244 244 244
231 231 231 232 233 234 235 234 235 236 237 239 242 243 244 243 244 244 244 244 244 245 246 246 247 248 247 247 245 243 243 244 244 244 242 243 245 244 245 245 244 244
233 233 233 234 235 235 235 234 236 236 236 239 242 242 243 244 244 244 244 243 243 244 245 246 247 247 247 246 243 242 242 243 244 244 243 243 245 245 245 245 245 245
234 235 235 235 235 235 235 235 237 237 237 239 241 242 243 243 243 244 244 243 243 244 244 245 246 246 246 245 242 241 241 242 243 242 241 242 244 244 244 244 244 244
235 236 236 236 236 236 236 237 238 238 238 240 241 242 242 242 242 243 243 243 243 244 245 245 245 245 245 243 241 241 241 241 242 241 241 243 244 244 244 244 243 244
237 237 237 237 236 237 237 238 238 239 239 239 240 241 241 241 242 243 243 243 243 244 245 245 244 244 244 243 241 240 241 241 241 240 241 242 243 243 243 244 244 245
239 239 238 238 237 237 238 238 239 240 239 239 239 241 241 241 243 244 243 244 243 244 245 244 244 243 242 242 241 241 241 241 241 241 241 241 241 241 242 242 242 243
240 240 238 238 238 238 239 239 240 240 239 240 240 241 242 243 244 244 244 244 243 243 244 243 244 244 243 242 241 242 242 243 244 244 243 243 243 244 247 247 246 246
241 240 238 238 239 239 240 240 240 240 240 241 241 242 243 244 244 243 242 242 242 243 243 244 245 245 244 244 243 244 244 245 245 245 245 245 246 250 252 251 250 251
241 240 239 239 239 240 240 240 241 241 241 242 241 242 243 243 243 243 242 242 242 244 244 245 246 246 245 246 245 246 246 246 246 247 249 250 250 253 254 252 251 252
241 240 240 240 240 241 241 241 241 241 241 242 242 241 242 242 242 242 242 242 243 244 244 244 245 246 245 245 246 247 247 247 248 250 252 253 253 255 255 253 250 248
244 242 241 241 241 241 242 241 241 241 240 241 241 240 240 241 241 241 242 243 243 244 245 245 245 245 245 245 245 247 248 248 249 251 252 253 254 255 254 254 253 250
246 245 244 243 242 241 240 240 240 240 239 239 239 239 239 240 240 241 241 241 242 242 243 243 243 243 243 244 244 245 246 248 249 251 252 252 252 252 252 252 254 253
247 246 244 242 241 240 239 239 238 238 238 238 238 239 239 238 238 239 239 240 240 240 240 240 241 242 242 242 243 245 245 246 248 250 252 251 249 248 248 247 247 246
246 244 242 240 239 239 237 237 237 236 236 237 237 238 238 236 235 234 235 237 237 236 236 237 237 238 239 240 241 244 245 245 246 248 249 248 247 245 245 245 241 236
244 242 240 239 237 236 234 233 233 232 232 233 233 233 232 231 230 231 232 232 232 232 234 234 236 236 237 239 241 243 244 245 245 245 244 244 243 243 244 244 238 233
243 240 239 237 234 233 231 228 226 226 226 227 226 226 225 224 225 226 226 226 227 228 228 227 230 232 231 235 238 237 238 239 241 241 242 242 241 240 240 239 237 237
240 239 238 237 234 232 229 227 226 225 225 225 224 224 223 223 223 224 223 223 223 225 223 222 226 229 230 232 232 231 231 232 234 236 240 242 240 237 237 237 240 242
237 235 236 235 232 229 227 226 227 227 227 226 226 227 227 227 227 226 225 223 222 223 222 222 225 228 231 235 235 232 230 230 230 231 234 237 236 235 237 239 242 243
234 231 230 229 227 224 224 224 224 226 226 226 227 229 229 228 226 225 223 221 219 220 221 224 227 226 228 231 232 230 227 225 225 226 228 230 231 233 236 239 240 239
234 228 225 224 223 222 223 224 223 223 223 222 223 224 223 221 220 219 220 220 220 221 224 225 225 223 222 223 222 221 221 220 219 219 223 227 230 234 236 235 235 236
235 228 223 221 221 223 224 223 222 221 219 218 219 221 221 220 220 220 220 221 221 221 221 220 219 218 217 217 217 216 217 217 216 215 217 223 229 232 233 231 231 232
235 229 225 222 223 225 225 224 223 220 218 217 218 222 224 222 220 220 219 218 218 218 218 218 218 219 219 218 216 214 215 215 214 210 209 214 222 226 227 229 232 233
235 230 228 226 225 226 225 224 223 219 215 214 214 218 222 221 219 217 216 217 217 217 218 219 220 220 219 217 214 213 213 213 210 205 203 206 214 221 225 230 233 232
Height
770 771 773 774 775 776 778 779 781 782 783 784 785 785 786 787 790 793 794 796 798 800 801 803 805 806 807 809 811 812 813 814 815 816 818 819 820 821 822 823 824 825
765 767 769 771 771 772 774 775 777 778 779 780 780 781 782 784 787 789 791 793 794 796 797 799 800 801 803 805 807 808 809 810 810 812 814 815 816 817 817 818 818 819
762 763 765 766 767 768 769 771 773 774 775 776 776 777 779 781 784 786 787 789 790 792 793 795 796 798 799 801 802 804 804 805 806 808 810 811 812 812 812 813 813 813
758 759 760 761 762 764 766 768 769 770 771 772 773 774 776 779 781 782 784 785 787 788 790 791 793 794 796 797 799 800 800 801 803 805 806 806 807 807 807 808 808 809
754 755 756 758 759 761 763 764 764 765 767 768 769 771 773 775 777 778 780 782 783 785 787 788 789 791 792 793 795 796 797 798 799 801 801 801 801 802 803 804 804 805
751 752 753 754 756 757 759 759 760 761 763 764 766 768 769 771 773 774 776 778 780 782 783 784 785 787 788 790 791 792 793 794 795 796 796 796 797 798 799 800 800 801
747 748 749 751 752 754 754 755 756 758 759 761 763 764 765 767 769 770 772 774 776 778 779 780 782 783 784 786 787 788 788 790 791 792 792 792 793 794 794 795 796 796
744 745 746 748 749 750 750 751 752 753 755 757 758 759 761 763 765 767 769 771 772 773 775 776 777 779 780 782 783 784 784 785 786 787 787 787 788 789 789 791 791 792
741 742 743 744 745 745 746 746 748 749 751 753 754 756 758 759 761 763 765 767 768 769 770 772 773 775 777 778 779 780 780 781 782 782 782 783 784 784 785 786 787 787
737 738 739 740 740 740 741 742 744 746 747 749 750 752 754 755 757 759 761 763 764 765 766 768 769 771 772 773 774 775 776 777 778 778 778 779 780 781 782 783 784 784
733 733 735 735 735 736 737 739 741 742 744 745 747 749 750 752 754 755 757 758 759 761 762 764 765 766 768 769 770 771 772 772 773 774 774 775 777 778 779 780 780 781
728 729 729 730 731 732 734 736 738 739 741 742 743 745 746 748 750 751 753 754 755 757 758 760 761 762 763 764 766 767 768 768 769 770 771 772 774 775 775 776 777 778
724 725 725 726 728 729 731 733 734 736 737 738 740 742 743 744 745 747 748 750 752 753 754 756 757 758 759 760 762 763 764 765 766 767 768 769 770 771 772 773 773 774
720 722 723 724 725 727 728 729 731 732 734 735 737 738 739 740 741 743 745 746 748 749 750 752 753 754 755 756 758 759 760 761 762 763 764 765 766 767 768 769 769 770
718 719 720 721 722 723 725 726 727 729 730 731 733 733 735 736 738 739 741 742 743 745 746 748 749 750 751 753 754 755 756 757 758 760 761 762 763 763 764 765 765 766
715 716 717 718 719 719 721 722 723 725 726 727 728 729 731 733 734 736 737 738 739 741 742 744 745 746 748 749 750 751 753 754 755 756 757 758 759 759 760 761 761 762
712 713 714 714 715 716 717 718 720 721 722 723 725 726 728 729 731 732 733 735 736 737 739 740 741 743 744 746 747 748 749 750 751 752 753 754 755 756 756 757 758 759
708 710 710 711 712 713 714 715 717 718 719 721 722 723 725 726 728 729 730 732 733 734 735 737 738 739 741 742 743 744 745 746 747 749 750 751 752 752 753 754 755 756
706 706 707 707 708 710 711 712 714 715 717 718 719 721 723 724 724 726 727 729 730 731 732 733 735 736 737 738 739 740 742 743 744 746 747 748 749 750 751 752 753 754
702 703 704 704 705 707 708 710 711 712 714 716 717 719 720 720 721 723 724 725 726 727 729 730 731 733 734 735 736 737 738 739 741 743 744 745 746 747 748 750 751 751
699 699 701 702 703 705 706 707 708 709 711 713 714 716 716 717 718 720 721 722 723 724 725 726 728 730 731 732 733 733 735 736 737 739 740 741 743 744 746 747 748 748
696 696 698 699 701 703 703 704 705 706 708 710 711 713 713 715 715 716 717 718 720 721 722 723 725 726 728 728 729 730 731 732 734 735 736 738 739 741 742 743 744 745
693 693 694 696 699 700 700 700 701 703 705 707 708 710 710 711 712 713 714 715 716 717 718 720 721 723 724 725 726 727 728 729 730 732 733 735 737 739 740 741 743 744
690 690 690 692 694 695 696 697 698 700 702 703 706 707 708 709 710 711 712 713 713 714 715 716 718 719 721 722 723 724 724 725 727 728 730 733 736 738 740 741 741 742
687 688 687 687 689 690 691 693 695 698 700 701 703 705 706 708 709 709 710 710 711 711 712 713 715 716 718 719 720 721 722 723 724 725 727 730 734 737 739 740 740 740
683 684 684 683 684 685 688 691 693 695 698 699 700 702 704 706 706 707 707 708 708 709 709 710 712 714 715 716 717 718 719 720 721 721 723 727 731 735 738 739 739 738